Location: Chavenne
(46.6022°N, 3.2951°E)
Time: 11:14:20
(UTC+00:00)

Cosmos 540 Rocket - Pass Details

Date: 09 April 2020
Orbit: 741 x 753 km, 74.1° (Epoch: 03 June)

Event Time Altitude Azimuth Distance (km) Brightness Sun altitude
Rises 21:27:06 0° 337° (NNW) 3,212 7.9 -27.0°
Reaches altitude 10° 21:29:29 10° 336° (NNW) 2,281 6.9 -27.3°
Enters shadow 21:34:19 75° 296° (WNW) 781 3.5 -27.8°
